www.pogodaiklimat.ru

Архив погоды в Петропавловск-Камчатском (Камчатский край, Россия)

Время
(UTC), дата
06 22.06
09 22.06
12 22.06
15 22.06
18 22.06
21 22.06
00 23.06
03 23.06
06 23.06
09 23.06
12 23.06
15 23.06
18 23.06
21 23.06
00 24.06
03 24.06
06 24.06
09 24.06
12 24.06
15 24.06
18 24.06
21 24.06
00 25.06
03 25.06
06 25.06
09 25.06
12 25.06
15 25.06
18 25.06
21 25.06
00 26.06
03 26.06
06 26.06
09 26.06
12 26.06
15 26.06
18 26.06
21 26.06
00 27.06
03 27.06
06 27.06
09 27.06
12 27.06
15 27.06
18 27.06
21 27.06
00 28.06
03 28.06
06 28.06
09 28.06
12 28.06
15 28.06
18 28.06
21 28.06
00 29.06
03 29.06
Ветер
(напр.,м/с)
Видим. Явления Облачность Т
(С)
Тd
(С)
f
(%)
Тe
(С)
Тes
(С)
Комфортность P
(гПа)
Po
(гПа)
Тmin
(С)
Tmax
(С)
R
(мм)
R24
(мм)
S
(см)
Ю 4
{11}
10 км туман на расстоянии 9/8 600 м
[Sc Ac trans]
+9.8 +7.9 88 +7 +8 прохладно 1012.8 1009.9
ЮВ 4 10 км туман на расстоянии 9/8 300 м
[Sc Ac trans]
+8.6 +6.7 88 +5 +5 прохладно 1012.6 1009.7 +14.8 0.0
ЮВ 1 20 км 4/4 600 м
[Sc]
+7.9 +6.6 91 +7 +7 по сезону 1012.2 1009.3
штиль 0 2000 м туман на расстоянии 10/10 200 м
[St]
+8.7 +7.9 95 +8 +8 по сезону 1011.4 1008.5
СЗ 3 500 м туман ?/? +8.9 +8.4 97 +6 +6 по сезону 1010.7 1007.8
СЗ 1 200 м туман ?/? +9.0 +8.6 97 +8 +8 по сезону 1010.1 1007.2 +7.8
Ю 1 50 км в посл. час туман 4/1 200 м
[St Ac trans Ci fib]
+15.2 +11.2 77 +16 +29 опасность
простуды
1008.7 1005.8
ЮВ 3 50 км туман поземный 1/1 600 м
[Sc]
+15.7 +11.3 75 +15 +26 опасность
простуды
1007.8 1005.0
ЮВ 4 50 км туман поземный 1/1 600 м
[Sc]
+12.8 +9.7 81 +11 +15 по сезону 1008.3 1005.4
ЮВ 2 50 км туман поземный 3/1 600 м
[Sc Ci fib]
+11.3 +8.9 85 +10 +10 по сезону 1009.3 1006.4 +17.9
ЮВ 2 50 км местами туман поземный 1/1 1000 м
[Sc]
+9.6 +6.9 83 +8 +8 по сезону 1010.7 1007.8
С 1 50 км 3/1 600 м
[Sc Ci fib]
+9.6 +8.1 90 +9 +9 по сезону 1010.8 1007.8
С 1 50 км 3/0
[Ci fib]
+8.6 +8.2 97 +8 +8 по сезону 1011.0 1008.1
СЗ 1 50 км 8/0
[Ci fib]
+11.6 +9.2 85 +11 +18 по сезону 1011.1 1008.2 +8.5
ЮВ 1 50 км 1/0
[Ci fib]
+16.4 +9.2 62 +17 +35 опасность
простуды
1010.0 1007.2
ЮВ 5
{10}
50 км 3/1 600 м
[Cu med, cong Ci fib]
+17.0 +10.1 64 +16 +23 тепло 1009.3 1006.5
ЮВ 5
{10}
50 км 3/1 600 м
[Sc Ci fib]
+14.8 +9.9 72 +13 +16 тепло 1009.1 1006.3
ЮВ 3 50 км 8/1 600 м
[Sc Cs]
+12.7 +10.0 84 +11 +11 по сезону 1009.6 1006.7 +18.1
ЮВ 1 50 км 6/1 600 м
[Sc Ci fib]
+10.9 +9.4 90 +11 +11 тепло 1010.6 1007.7
Ю 1 50 км 4/4 600 м
[Sc]
+9.9 +9.2 95 +9 +9 по сезону 1010.7 1007.8
ЮВ 2 50 км 6/6 600 м
[Sc]
+8.4 +8.0 97 +6 +6 по сезону 1011.0 1008.1
Ю 1 2000 м туман на расстоянии 10/10 200 м
[St]
+10.9 +10.5 97 +10 +10 по сезону 1011.4 1008.5 +8.3
Ю 3 50 км {туман} 8/3 200 м
[St Ac trans Ci fib]
+15.0 +11.4 79 +14 +20 тепло 1010.4 1007.5
ЮВ 5 50 км туман поземный 10/3 200 м
[St Ac As Cs]
+15.6 +10.6 72 +14 +17 тепло 1009.3 1006.4
ЮВ 2 50 км 10/3 1000 м
[Sc Ac As Cs]
+14.3 +11.0 81 +14 +16 тепло 1009.5 1006.7
С 1 50 км 10/4 600 м
[Sc Ac As]
+17.9 +10.1 60 +19 +19 тепло 1011.4 1008.6 +18.4
С 3 20 км {ливн. дождь} 10/5 600 м
[Sc Ac und]
+16.7 +9.8 64 +17 +17 тепло 1010.3 1007.5
С 2 20 км 10/3 600 м
[Sc Ac und]
+14.2 +10.7 79 +14 +14 тепло 1008.9 1006.1
штиль 0 20 км слаб. ливневой дождь 10/4 600 м
[Cb cap Ac und]
+13.6 +11.8 89 +13 +13 тепло 1008.2 1005.3
ЮВ 3 4000 м слаб. ливневой дождь 10/10 300 м
[Cb cap]
+11.7 +11.1 96 +10 +10 по сезону 1008.8 1006.0 +11.5 0.5
ЮВ 3 10 км слаб. ливневой дождь 10/10 300 м
[Cb cap]
+12.5 +11.5 94 +11 +11 по сезону 1007.8 1005.0
ЮВ 3 4000 м слаб. ливневой дождь 10/10 300 м
[Cb cap]
+12.6 +11.3 92 +11 +11 по сезону 1007.0 1004.1
ЮВ 4 2000 м слаб. ливневой дождь 10/10 200 м
[Cb cap]
+10.9 +10.4 97 +8 +8 по сезону 1006.8 1003.9
ЮВ 2 4000 м слаб. ливневой дождь 10/10 200 м
[Cb cap]
+10.6 +10.1 97 +9 +9 по сезону 1006.6 1003.7 +12.7 6
штиль 0 10 км туман на расстоянии {ливн. дождь} 10/10 300 м
[Sc]
+10.7 +10.1 96 +10 +10 тепло 1006.2 1003.3
СЗ 2 10 км туман на расстоянии 10/10 200 м
[Sc]
+10.6 +10.2 97 +9 +9 тепло 1005.5 1002.6
С 2 10 км туман на расстоянии 10/5 300 м
[Sc Ac trans Ci fib]
+10.6 +9.9 95 +9 +9 тепло 1004.9 1002.0
СЗ 2 20 км местами туман поземный 9/3 300 м
[Sc Ac trans Ci fib]
+12.1 +10.6 91 +11 +14 тепло 1005.5 1002.6 +10.4 0.1
ЮЗ 1 20 км 9/4 600 м
[Sc Ci fib]
+15.2 +10.5 74 +16 +25 тепло 1005.5 1002.7
Ю 1 50 км 6/4 1000 м
[Sc Ac trans]
+18.3 +9.5 56 +20 +28 тепло 1005.5 1002.7
Ю 1 50 км 3/3 1000 м
[Sc]
+17.7 +9.6 59 +19 +24 тепло 1005.7 1002.9
ЮВ 3 50 км 8/3 1000 м
[Sc Ci fib]
+14.4 +8.2 66 +14 +14 тепло 1007.0 1004.1 +19.6
ЮВ 2 50 км 3/1 1000 м
[Sc Ci fib]
+12.0 +9.3 84 +11 +11 тепло 1008.4 1005.5
В 1 50 км 1/1 1000 м
[Sc]
+10.2 +8.2 87 +10 +10 тепло 1008.7 1005.8
С 1 20 км 9/8 600 м
[Sc Ac trans]
+10.6 +9.5 93 +10 +10 тепло 1009.3 1006.4
СЗ 2 4000 м туман на расстоянии 9/9 200 м
[St]
+10.6 +9.3 92 +9 +10 по сезону 1010.3 1007.4 +10.0
ЮЗ 1 50 км 8/3 600 м
[Sc Ci fib]
+15.1 +11.1 77 +16 +26 тепло 1009.8 1006.9
Ю 2 50 км местами туман поземный 4/3 600 м
[Cu Sc Ci fib]
+16.0 +11.0 72 +16 +26 тепло 1009.2 1006.4
ЮВ 3 50 км местами туман поземный 4/1 600 м
[Sc Ci fib]
+15.4 +10.2 71 +15 +19 тепло 1009.5 1006.6
ЮВ 1 50 км местами туман поземный 3/0
[Ci fib]
+13.1 +10.5 84 +13 +13 тепло 1009.7 1006.9 +18.1
Ю 1 20 км местами туман поземный 3/0
[Ci fib]
+9.6 +8.6 93 +9 +9 тепло 1010.1 1007.2
С 1 10 км туман на расстоянии 9/9 200 м
[Sc]
+9.4 +9.0 97 +9 +9 тепло 1009.5 1006.6
С 1 500 м туман ?/? +8.9 +8.7 99 +8 +8 тепло 1009.6 1006.7
СЗ 1 50 км туман поземный 8/1 200 м
[St Ci fib]
+10.8 +8.9 88 +10 +16 тепло 1009.4 1006.5 +8.3
СЗ 1 50 км {туман} 8/1 600 м
[Sc Ci fib]
+16.8 +11.4 70 +18 +31 опасность
простуды
1009.0 1006.2
ЮВ 1 50 км 9/0
[Ci fib]
+21.5 +10.1 48 +23 +38 комфорт 1008.2 1005.4
Местоположение метеостанции Петропавловск-Камчатский (Камчатский край, Россия): широта 52.87 долгота 158.60 высота над уровнем моря 24 м.
В архиве по умолчанию представлена погода в Петропавловск-Камчатском за последнюю неделю. Архивные данные за месяц целиком и за предыдущие месяцы, начиная с января 2011 года, Вы можете получить, выбрав интересующий диапазон дат из раскрывающегося списка и нажав кнопку "Найти!".
*Определитесь, кто Вы:
Внимание! Время в таблицах - всемирное. Для получения местного времени необходимо прибавить поправку, которая равна 12 ч.
Смотрите также архив погоды в соседних городах и на ближайших метеорологических станциях:
Партнеры нашего сайта:      
Пояснения к столбцам:
  • Ветер - указаны скорость ветра в м/с - средняя за 10 мин, порывы в срок и между сроками (в фигурных скобках) и направление, откуда дует ветер: С - северный,
  • СВ - северо-восточный, В - восточный, ЮВ - юго-восточный, Ю - южный, ЮЗ - юго-западный, З - западный, СЗ - северо-западный.
  • Видимость - горизонтальная дальность видимости в метрах или километрах. При видимости от 1 до 10 км при отсутствии осадков обычно наблюдается дымка, при ухудшении видимости до 1 км и менее - туман. В сухую погоду видимость может ухудшаться дымом, пылью или мглою.
  • Явления - указаны атмосферные явления, наблюдавшиеся в срок или в последний час перед сроком; фигурными скобками обозначены явления, наблюдавшиеся между сроками (за 1-3 часа до срока); квадратными скобками обозначены град или гололедные отложения с указанием их диаметра в мм.
  • Облачность - указаны через наклонную черту общая и нижняя облачность в баллах и высота нижней границы облаков в метрах; квадратными скобками обозначены формы облаков: Ci - перистые, Cs - перисто-слоистые, Cc - перисто-кучевые, Ac - высококучевые, As - высокослоистые, Sc - слоисто-кучевые, Ns - слоисто-дождевые, Cu - кучевые, Cb - кучево-дождевые. Подробнее классификацию облаков см. в Атласе облаков (PDF).
  • T - Температура воздуха - температура, измеренная на высоте 2 м над землей.
  • Td - Температура точки росы - температура, при понижении до которой содержащийся в воздухе водяной пар достигнет насыщения.
  • f - Относительная влажность воздуха - влажноcть воздуха, измеренная на высоте 2 м над землей.
  • Te - Эффективная температура - температура, которую ощущает одетый по сезону человек в тени. Характеристика душности погоды. При расчете учитывается влияние влажности воздуха и скорости ветра на теплоощущения человека.
  • Tes - Эффективная температура на солнце - температура, которую ощущает человек, с поправкой на солнечный нагрев. Характеристика знойности погоды. Зависит от высоты солнца над горизонтом, облачности и скорости ветра. Ночью, в пасмурную погоду, а также при ветре 12 м/с и более поправка равна нулю.
  • P - Атмосферное давление - приведенное к уровню моря атмосферное давление.
  • Po - Атмосферное давление - измеренное на уровне метеостанции атмосферное давление.
  • Tmin - Минимальная температура - минимум температуры воздуха на высоте 2 м над землей.
  • Tmax - Максимальная температура - максимум температуры воздуха на высоте 2 м над землей.
  • R - Количество осадков - Количество выпавших осадков за период времени, мм. При наведении курсора мыши на число - период времени, за который выпало указанное количество осадков.
  • R24 - Количество осадков - Количество выпавших осадков за 24 часа, мм.
  • S - Снежный покров - Высота снежного покрова, см. При наведении курсора мыши на число - состояние снежного покрова и степень покрытия местности в баллах.